GW7050 Weather Reports


time (UTC)temp
C
wind
direction
speed
KPH
gust
KPH
rain 1hr
cm
rain 24hr
cm
rain mn
cm
humidity
%
barometer
mb
20260510045343 23 114 6.4 9.7 0.00 0.00 0.00 83 1011.8
20260510044840 23 121 6.4 11.3 0.00 0.00 0.00 84 1011.5
20260510044337 22 122 4.8 6.4 0.00 0.00 0.00 84 1011.4
20260510043834 22 111 3.2 6.4 0.00 0.00 0.00 85 1011.8
20260510043329 22 105 4.8 6.4 0.00 0.00 0.00 85 1011.7
20260510042828 22 134 1.6 3.2 0.00 0.00 0.00 84 1011.6
20260510042323 23 144 3.2 3.2 0.00 0.00 0.00 84 1011.5
20260510041820 23 139 1.6 4.8 0.00 0.00 0.00 83 1011.4
20260510041317 23 118 3.2 6.4 0.00 0.00 0.00 83 1011.6
20260510040814 23 106 3.2 9.7 0.00 0.00 0.00 84 1011.5
20260510040311 23 126 3.2 6.4 0.00 0.00 0.00 84 1011.5
20260510035806 23 125 3.2 4.8 0.00 0.00 0.00 83 1011.5
20260510035306 23 138 4.8 6.4 0.00 0.00 0.00 82 1011.2
20260510034758 23 159 6.4 9.7 0.00 0.00 0.00 81 1011.2
20260510034256 23 112 3.2 4.8 0.00 0.00 0.00 81 1011.3
20260510033752 23 117 6.4 6.4 0.00 0.00 0.00 80 1011.3
20260510033250 23 113 3.2 6.4 0.00 0.00 0.00 80 1011.0
20260510032746 23 163 1.6 6.4 0.00 0.00 0.00 79 1011.1
20260510032242 23 120 3.2 9.7 0.00 0.00 0.00 79 1011.0
20260510031737 23 119 4.8 6.4 0.00 0.00 0.00 78 1010.9
20260510031233 23 130 3.2 6.4 0.00 0.00 0.00 76 1010.6
20260510030733 23 91 1.6 6.4 0.00 0.00 0.00 76 1010.7
20260510030231 23 135 4.8 6.4 0.00 0.00 0.00 75 1010.9
20260510025728 23 115 6.4 14.5 0.00 0.00 0.00 76 1010.8
20260510025225 23 107 1.6 3.2 0.00 0.00 0.00 79 1010.6
20260510024722 23 97 1.6 3.2 0.00 0.00 0.00 80 1010.8
20260510024219 23 101 0.0 1.6 0.00 0.00 0.00 80 1010.6
20260510023714 23 82 1.6 1.6 0.00 0.00 0.00 82 1010.5
20260510023212 23 98 0.0 0.0 0.00 0.00 0.00 83 1010.5
20260510022707 23 92 0.0 1.6 0.00 0.00 0.00 84 1010.4
20260510022202 23 96 0.0 0.0 0.00 0.00 0.00 84 1010.4
20260510021658 23 89 0.0 1.6 0.00 0.00 0.00 85 1010.0
20260510021155 22 83 0.0 1.6 0.00 0.00 0.00 85 1010.2
20260510020649 22 98 0.0 0.0 0.00 0.00 0.00 85 1010.0
20260510020145 22 99 0.0 0.0 0.00 0.00 0.00 85 1010.0
20260510015641 22 99 0.0 1.6 0.00 0.00 0.00 85 1009.8
20260510015138 22 110 0.0 0.0 0.00 0.00 0.00 85 1009.8
20260510014633 22 110 0.0 1.6 0.00 0.00 0.00 85 1009.6
20260510014131 23 97 0.0 0.0 0.00 0.00 0.00 85 1009.5
20260510013631 23 95 0.0 0.0 0.00 0.00 0.00 84 1009.6
20260510013126 23 106 0.0 0.0 0.00 0.00 0.00 84 1009.5
20260510012626 23 75 0.0 1.6 0.00 0.00 0.00 83 1009.4
20260510012123 23 68 1.6 1.6 0.00 0.00 0.00 83 1009.3
20260510011622 23 79 0.0 1.6 0.00 0.00 0.00 83 1009.2
20260510011118 23 99 0.0 1.6 0.00 0.00 0.00 82 1009.4
20260510010615 23 61 1.6 1.6 0.00 0.00 0.00 82 1009.1
20260510010113 24 82 0.0 1.6 0.00 0.00 0.00 82 1009.2
20260510005608 24 106 0.0 1.6 0.00 0.00 0.00 80 1009.1
20260510005105 24 98 0.0 1.6 0.00 0.00 0.00 78 1009.3
20260510004603 24 108 0.0 0.0 0.00 0.00 0.00 77 1009.2
20260510004101 25 105 1.6 1.6 0.00 0.00 0.00 77 1009.1
20260510003557 25 51 1.6 3.2 0.00 0.00 0.00 76 1009.4
20260510003053 25 147 0.0 0.0 0.00 0.00 0.00 76 1009.2
20260510002548 25 147 0.0 1.6 0.00 0.00 0.00 77 1009.2
20260510002046 25 213 0.0 1.6 0.00 0.00 0.00 76 1009.4
20260510001543 25 210 1.6 3.2 0.00 0.00 0.00 77 1009.3
20260510001041 25 146 0.0 1.6 0.00 0.00 0.00 77 1009.4
20260510000536 25 116 0.0 0.0 0.00 0.00 0.00 75 1009.4
20260510000033 26 112 0.0 0.0 0.00 0.00 0.00 73 1009.5
20260509235530 26 66 1.6 1.6 0.00 0.00 0.00 70 1009.5
20260509235027 26 297 1.6 3.2 0.00 0.00 0.00 66 1009.6
20260509234523 26 120 0.0 1.6 0.00 0.00 0.00 64 1009.7
20260509234021 26 72 1.6 4.8 0.00 0.00 0.00 63 1009.2
20260509233518 26 18 1.6 3.2 0.00 0.00 0.00 62 1009.3
20260509233015 26 47 4.8 6.4 0.00 0.00 0.00 63 1008.7
20260509232512 26 80 3.2 3.2 0.00 0.00 0.00 62 1008.8
20260509232008 26 56 3.2 4.8 0.00 0.00 0.00 60 1009.2
20260509231505 27 56 4.8 6.4 0.00 0.00 0.00 60 1009.3
20260509231002 27 53 6.4 11.3 0.00 0.00 0.00 59 1009.2
20260509230459 28 38 11.3 14.5 0.00 0.00 0.00 56 1009.2
20260509225955 30 59 9.7 16.1 0.00 0.00 0.00 51 1009.2
20260509225452 31 68 6.4 9.7 0.00 0.00 0.00 53 1009.1
20260509224947 32 155 3.2 6.4 0.00 0.00 0.00 51 1008.6
20260509224443 31 142 0.0 3.2 0.00 0.00 0.00 53 1008.7
20260509223940 32 116 3.2 4.8 0.00 0.00 0.00 51 1008.6
20260509223437 33 134 1.6 3.2 0.00 0.00 0.00 49 1008.5
20260509222934 33 121 0.0 1.6 0.00 0.00 0.00 47 1008.8
20260509222429 33 129 0.0 1.6 0.00 0.00 0.00 47 1008.3
20260509221926 33 163 0.0 3.2 0.00 0.00 0.00 48 1008.1
20260509221422 33 184 0.0 3.2 0.00 0.00 0.00 49 1008.3
20260509220918 32 194 1.6 1.6 0.00 0.00 0.00 52 1008.2
20260509220414 32 179 3.2 3.2 0.00 0.00 0.00 50 1008.1
20260509215910 33 127 0.0 6.4 0.00 0.00 0.00 52 1008.1
20260509215406 34 149 1.6 4.8 0.00 0.00 0.00 48 1008.2
20260509214904 35 218 0.0 1.6 0.00 0.00 0.00 46 1008.3
20260509214401 33 129 0.0 0.0 0.00 0.00 0.00 44 1008.6
20260509213858 33 89 1.6 1.6 0.00 0.00 0.00 44 1008.5
20260509213353 34 227 3.2 4.8 0.00 0.00 0.00 43 1008.5
20260509212851 33 228 1.6 1.6 0.00 0.00 0.00 46 1008.4
20260509212348 33 191 0.0 1.6 0.00 0.00 0.00 46 1008.6
20260509211844 33 211 1.6 3.2 0.00 0.00 0.00 48 1008.7
20260509211340 33 109 4.8 6.4 0.00 0.00 0.00 46 1008.7
20260509210837 33 209 3.2 4.8 0.00 0.00 0.00 47 1008.7
20260509210335 33 110 1.6 4.8 0.00 0.00 0.00 46 1008.8
20260509205834 33 180 3.2 3.2 0.00 0.00 0.00 46 1008.8
20260509205329 33 233 1.6 4.8 0.00 0.00 0.00 49 1008.9
20260509204826 33 97 3.2 6.4 0.00 0.00 0.00 50 1009.0
20260509204322 33 122 0.0 3.2 0.00 0.00 0.00 50 1009.2
20260509203818 33 222 1.6 3.2 0.00 0.00 0.00 49 1009.2
20260509203315 33 194 1.6 1.6 0.00 0.00 0.00 51 1009.2
20260509202812 33 91 0.0 3.2 0.00 0.00 0.00 52 1009.4
20260509202308 33 142 0.0 4.8 0.00 0.00 0.00 52 1009.4
20260509201807 33 186 1.6 3.2 0.00 0.00 0.00 49 1009.6
20260509201304 33 181 3.2 3.2 0.00 0.00 0.00 49 1009.5
20260509200800 33 354 1.6 3.2 0.00 0.00 0.00 51 1009.5
20260509200255 33 286 1.6 1.6 0.00 0.00 0.00 51 1009.5
20260509195752 33 212 1.6 1.6 0.00 0.00 0.00 54 1009.5
20260509195248 33 165 1.6 6.4 0.00 0.00 0.00 51 1009.5
20260509194748 33 254 1.6 1.6 0.00 0.00 0.00 50 1009.6
20260509194244 33 352 1.6 3.2 0.00 0.00 0.00 49 1009.5
20260509193741 32 135 0.0 3.2 0.00 0.00 0.00 50 1009.7
20260509193241 33 216 1.6 3.2 0.00 0.00 0.00 51 1009.7
20260509192737 32 199 1.6 3.2 0.00 0.00 0.00 54 1009.7
20260509192232 32 204 0.0 3.2 0.00 0.00 0.00 57 1009.6
20260509191728 32 168 0.0 3.2 0.00 0.00 0.00 56 1009.8
20260509191225 32 212 1.6 4.8 0.00 0.00 0.00 56 1009.8
20260509190720 32 61 1.6 3.2 0.00 0.00 0.00 56 1009.9
20260509190218 32 126 0.0 0.0 0.00 0.00 0.00 61 1009.9
20260509185715 31 131 0.0 4.8 0.00 0.00 0.00 58 1010.1
20260509185212 31 285 1.6 3.2 0.00 0.00 0.00 58 1010.3
20260509184709 31 263 1.6 1.6 0.00 0.00 0.00 63 1010.3
20260509184206 31 186 1.6 1.6 0.00 0.00 0.00 63 1010.3
20260509183702 31 221 1.6 4.8 0.00 0.00 0.00 63 1010.5
20260509183158 31 209 6.4 9.7 0.00 0.00 0.00 62 1010.3
20260509182653 31 221 3.2 3.2 0.00 0.00 0.00 63 1010.5
20260509182151 31 182 1.6 3.2 0.00 0.00 0.00 63 1010.8
20260509181649 31 228 3.2 3.2 0.00 0.00 0.00 64 1010.9
20260509181146 31 7 1.6 3.2 0.00 0.00 0.00 63 1010.9
20260509180642 30 141 0.0 3.2 0.00 0.00 0.00 64 1011.1
20260509180139 31 182 3.2 6.4 0.00 0.00 0.00 66 1011.2
20260509175635 31 120 1.6 4.8 0.00 0.00 0.00 64 1011.0
20260509175132 30 99 1.6 1.6 0.00 0.00 0.00 64 1011.3
20260509174628 30 233 1.6 4.8 0.00 0.00 0.00 67 1011.1
20260509174123 30 70 1.6 4.8 0.00 0.00 0.00 67 1011.2
20260509173619 30 105 0.0 3.2 0.00 0.00 0.00 66 1011.3
20260509173115 30 189 0.0 3.2 0.00 0.00 0.00 68 1011.4
20260509172612 30 222 3.2 3.2 0.00 0.00 0.00 69 1011.6
20260509172108 30 165 0.0 1.6 0.00 0.00 0.00 70 1011.3
20260509171604 29 194 0.0 1.6 0.00 0.00 0.00 70 1011.4
20260509171100 28 171 1.6 3.2 0.00 0.00 0.00 71 1011.5
20260509170556 28 124 0.0 0.0 0.00 0.00 0.00 75 1011.6
20260509170052 28 146 0.0 3.2 0.00 0.00 0.00 74 1011.7
20260509165551 28 152 0.0 1.6 0.00 0.00 0.00 72 1011.8
20260509165046 28 111 0.0 0.0 0.00 0.00 0.00 72 1011.6
20260509164543 28 62 1.6 1.6 0.00 0.00 0.00 70 1011.5
20260509164043 28 172 0.0 1.6 0.00 0.00 0.00 72 1011.5
20260509163542 29 174 1.6 1.6 0.00 0.00 0.00 71 1011.5
20260509163037 29 166 0.0 1.6 0.00 0.00 0.00 72 1011.4
20260509162535 28 149 0.0 0.0 0.00 0.00 0.00 74 1011.5
20260509162030 28 145 0.0 0.0 0.00 0.00 0.00 74 1011.4
20260509161528 28 121 0.0 0.0 0.00 0.00 0.00 76 1011.3
20260509161028 28 152 0.0 0.0 0.00 0.00 0.00 77 1011.4
20260509160524 28 83 1.6 3.2 0.00 0.00 0.00 77 1011.2
20260509160020 27 56 1.6 1.6 0.00 0.00 0.00 77 1011.2
20260509155515 27 106 0.0 1.6 0.00 0.00 0.00 79 1011.1
20260509155012 27 166 0.0 1.6 0.00 0.00 0.00 80 1011.3
20260509154508 27 115 0.0 1.6 0.00 0.00 0.00 80 1011.2
20260509154006 27 155 0.0 1.6 0.00 0.00 0.00 80 1011.3
20260509153503 27 167 0.0 1.6 0.00 0.00 0.00 79 1011.5
20260509152959 27 137 0.0 1.6 0.00 0.00 0.00 79 1011.3
20260509152455 27 210 1.6 1.6 0.00 0.00 0.00 78 1011.2
20260509151952 27 139 0.0 1.6 0.00 0.00 0.00 80 1011.3
20260509151448 27 207 0.0 3.2 0.00 0.00 0.00 79 1011.4
20260509150947 27 210 1.6 3.2 0.00 0.00 0.00 81 1011.4
20260509150444 27 160 0.0 1.6 0.00 0.00 0.00 82 1011.5
20260509145942 27 82 1.6 1.6 0.00 0.00 0.00 83 1011.2
20260509145442 26 95 0.0 1.6 0.00 0.00 0.00 84 1011.2
20260509144938 26 263 1.6 3.2 0.00 0.00 0.00 86 1011.1
20260509144435 26 161 0.0 1.6 0.00 0.00 0.00 88 1011.1
20260509143932 26 184 0.0 3.2 0.00 0.00 0.00 89 1011.1
20260509143430 25 177 0.0 1.6 0.00 0.00 0.00 92 1011.0
20260509142925 25 166 0.0 3.2 0.00 0.00 0.00 93 1010.8
20260509142422 25 172 0.0 1.6 0.00 0.00 0.00 94 1010.8
20260509141918 24 121 1.6 3.2 0.00 0.00 0.00 95 1010.6
20260509141415 23 95 1.6 4.8 0.00 0.00 0.00 95 1010.3
20260509140912 23 124 3.2 6.4 0.00 0.00 0.00 96 1010.5
20260509140408 23 171 4.8 6.4 0.00 0.00 0.00 97 1010.2
20260509135907 23 117 4.8 4.8 0.00 0.00 0.00 97 1010.1
20260509135404 23 105 0.0 0.0 0.00 0.00 0.00 97 1010.5
20260509134901 23 93 0.0 1.6 0.00 0.00 0.00 98 1010.7
20260509134358 23 121 0.0 3.2 0.00 0.00 0.00 97 1010.4
20260509133855 23 110 1.6 4.8 0.00 0.00 0.00 97 1010.0
20260509133352 23 168 1.6 4.8 0.00 0.00 0.00 98 1010.7
20260509132851 23 156 0.0 3.2 0.00 0.00 0.00 98 1010.9
20260509132348 23 180 1.6 3.2 0.00 0.00 0.00 98 1011.1
20260509131845 23 135 1.6 3.2 0.00 0.00 0.00 98 1011.5
20260509131342 23 181 1.6 3.2 0.00 0.00 0.00 98 1011.3
20260509130838 23 133 3.2 9.7 0.00 0.00 0.00 98 1011.2
20260509130334 23 147 3.2 4.8 0.00 0.00 0.00 98 1011.2
20260509125831 23 133 1.6 4.8 0.00 0.00 0.00 98 1011.5
20260509125327 23 118 1.6 1.6 0.00 0.00 0.00 98 1011.5
20260509124824 23 116 0.0 0.0 0.00 0.00 0.00 98 1011.6
20260509124320 23 113 0.0 1.6 0.00 0.00 0.00 98 1011.7
20260509123819 23 112 0.0 1.6 0.00 0.00 0.00 98 1011.7
20260509123316 23 114 0.0 0.0 0.00 0.00 0.00 98 1011.7
20260509122811 23 114 0.0 1.6 0.00 0.00 0.00 98 1011.7
20260509122308 23 81 0.0 1.6 0.00 0.00 0.00 98 1011.6
20260509121805 23 80 0.0 0.0 0.00 0.00 0.00 98 1011.7
20260509121302 23 80 0.0 0.0 0.00 0.00 0.00 98 1011.5
20260509120801 23 80 0.0 0.0 0.00 0.00 0.00 98 1011.5
20260509120258 22 79 0.0 0.0 0.00 0.00 0.00 98 1011.4
20260509115756 22 79 0.0 0.0 0.00 0.00 0.00 98 1011.4
20260509115253 22 79 0.0 0.0 0.00 0.00 0.00 98 1011.3
20260509114751 22 78 0.0 3.2 0.00 0.00 0.00 98 1011.0
20260509114249 22 113 0.0 1.6 0.00 0.00 0.00 98 1010.8
20260509113748 22 113 1.6 1.6 0.00 0.00 0.00 98 1010.8
20260509113244 22 105 3.2 4.8 0.00 0.00 0.00 98 1010.5
20260509112741 23 120 3.2 4.8 0.00 0.00 0.00 98 1010.8
20260509112238 23 136 1.6 1.6 0.00 0.00 0.00 98 1011.0
20260509111736 23 125 1.6 1.6 0.00 0.00 0.00 98 1011.2
20260509111232 23 124 0.0 1.6 0.00 0.00 0.00 98 1011.1
20260509110730 23 125 0.0 1.6 0.00 0.00 0.00 98 1011.0
20260509110226 23 118 0.0 3.2 0.00 0.00 0.00 98 1010.9
20260509105724 23 95 0.0 1.6 0.00 0.00 0.00 98 1010.8
20260509105222 23 95 0.0 0.0 0.00 0.00 0.00 98 1010.9
20260509104718 23 95 0.0 0.0 0.00 0.00 0.00 98 1011.2
20260509104215 23 95 0.0 0.0 0.00 0.00 0.00 98 1010.8
20260509103714 23 95 0.0 0.0 0.00 0.00 0.00 98 1011.0
20260509103210 23 95 0.0 0.0 0.00 0.00 0.00 98 1010.7
20260509102709 23 95 0.0 0.0 0.00 0.00 0.00 98 1010.6
20260509102205 23 95 0.0 1.6 0.00 0.00 0.00 98 1010.7
20260509101701 23 95 0.0 0.0 0.00 0.00 0.00 98 1010.6
20260509101158 23 95 0.0 0.0 0.00 0.00 0.00 98 1010.7
20260509100655 22 95 0.0 0.0 0.00 0.00 0.00 98 1010.5
20260509100152 22 95 0.0 1.6 0.00 0.00 0.00 98 1010.2
20260509095649 22 96 0.0 1.6 0.00 0.00 0.00 98 1010.4
20260509095147 22 96 0.0 1.6 0.00 0.00 0.00 98 1010.4
20260509094643 22 95 0.0 1.6 0.00 0.00 0.00 98 1010.6
20260509094140 22 95 0.0 1.6 0.00 0.00 0.00 98 1010.5
20260509093638 22 95 0.0 1.6 0.00 0.00 0.00 98 1010.6
20260509093135 22 95 0.0 0.0 0.00 0.00 0.00 98 1010.7
20260509092633 22 95 0.0 1.6 0.00 0.00 0.00 98 1010.5
20260509092132 22 110 0.0 1.6 0.00 0.00 0.00 98 1010.1
20260509091629 22 110 0.0 0.0 0.00 0.00 0.00 98 1010.2
20260509091125 22 110 0.0 3.2 0.00 0.00 0.00 98 1010.3
20260509090623 22 122 3.2 3.2 0.00 0.00 0.00 98 1010.2
20260509090120 22 107 0.0 1.6 0.00 0.00 0.00 98 1010.1
20260509085617 22 106 1.6 3.2 0.00 0.00 0.00 98 1010.0
20260509085113 22 130 3.2 4.8 0.00 0.00 0.00 98 1010.3
20260509084611 22 128 4.8 4.8 0.00 0.00 0.00 98 1010.2
20260509084107 22 116 0.0 1.6 0.00 0.00 0.00 98 1010.5
20260509083605 22 128 1.6 3.2 0.00 0.00 0.00 98 1010.2
20260509083101 22 117 4.8 11.3 0.00 0.00 0.00 98 1010.3
20260509082559 22 114 3.2 6.4 0.00 0.00 0.00 98 1010.2
20260509082055 22 141 1.6 1.6 0.00 0.00 0.00 98 1010.5
20260509081553 22 135 3.2 4.8 0.00 0.00 0.00 98 1010.5
20260509081049 22 143 0.0 3.2 0.00 0.00 0.00 97 1010.5
20260509080547 22 141 3.2 4.8 0.00 0.00 0.00 97 1010.4
20260509080045 22 202 3.2 4.8 0.00 0.00 0.00 97 1010.4
20260509075542 22 132 0.0 3.2 0.00 0.00 0.00 97 1010.0
20260509075040 22 132 1.6 3.2 0.00 0.00 0.00 97 1010.5
20260509074537 22 168 3.2 6.4 0.00 0.00 0.00 97 1010.7
20260509074034 22 149 0.0 1.6 0.00 0.00 0.00 97 1010.7
20260509073530 22 140 0.0 3.2 0.00 0.00 0.00 97 1010.4
20260509073027 22 138 3.2 4.8 0.00 0.00 0.00 97 1010.3
20260509072523 22 156 3.2 9.7 0.00 0.00 0.00 97 1010.5
20260509072020 22 144 6.4 6.4 0.00 0.00 0.00 97 1010.3
20260509071517 22 115 3.2 9.7 0.00 0.00 0.00 97 1010.6
20260509071014 22 120 0.0 4.8 0.00 0.00 0.00 97 1010.5
20260509070512 22 111 3.2 9.7 0.00 0.00 0.00 97 1010.4
20260509070008 22 134 3.2 9.7 0.00 0.00 0.00 97 1010.3
20260509065503 22 155 3.2 4.8 0.00 0.00 0.00 97 1010.3
20260509064959 22 124 6.4 6.4 0.00 0.00 0.00 97 1010.1
20260509064457 22 149 4.8 9.7 0.00 0.00 0.00 96 1010.2
20260509063955 22 134 1.6 9.7 0.00 0.00 0.00 96 1010.2
20260509063450 22 147 4.8 9.7 0.00 0.00 0.00 96 1010.2
20260509062948 22 135 4.8 9.7 0.00 0.00 0.00 96 1010.4
20260509062445 22 174 3.2 4.8 0.00 0.00 0.00 96 1010.5
20260509061943 22 193 4.8 9.7 0.00 0.00 0.00 96 1010.6
20260509061439 22 154 6.4 11.3 0.00 0.00 0.00 96 1010.4
20260509060937 22 162 3.2 4.8 0.00 0.00 0.00 96 1010.7
20260509060434 22 125 4.8 6.4 0.00 0.00 0.00 96 1010.8
20260509055929 22 146 4.8 9.7 0.00 0.00 0.00 96 1010.8
20260509055425 22 137 4.8 6.4 0.00 0.00 0.00 96 1010.9
20260509054921 22 111 3.2 6.4 0.00 0.00 0.00 95 1011.1
20260509054418 22 155 3.2 4.8 0.00 0.00 0.00 95 1011.1
20260509053917 22 129 4.8 6.4 0.00 0.00 0.00 95 1011.1
20260509053414 22 147 3.2 4.8 0.00 0.00 0.00 95 1011.1
20260509052912 22 122 1.6 9.7 0.00 0.00 0.00 95 1011.3
20260509052409 22 178 1.6 4.8 0.00 0.00 0.00 95 1011.2
20260509051907 22 143 4.8 6.4 0.00 0.00 0.00 95 1011.3
20260509051405 22 148 3.2 6.4 0.00 0.00 0.00 95 1011.2
20260509050901 22 134 3.2 6.4 0.00 0.00 0.00 95 1011.0
20260509050358 22 134 3.2 9.7 0.00 0.00 0.00 95 1011.0
20260509045855 22 191 4.8 9.7 0.00 0.00 0.00 95 1011.1